Location: Aydie
(43.5695°N, 0.1043°W)
Time: 05:33:09
(UTC+00:00)

Cosmos 1862 - Pass Details

Date: 17 November 2025
Orbit: 473 x 486 km, 82.5° (Epoch: 04 December)

Event Time Altitude Azimuth Distance (km) Brightness Sun altitude
Rises 18:16:25 0° 352° (N) 2,541 6.7 -18.6°
Reaches altitude 10° 18:18:31 10° 354° (N) 1,659 5.7 -18.9°
Maximum altitude 18:22:09 81° 82° (E) 491 2.9 -19.6°
Drops below altitude 10° 18:25:46 10° 170° (S) 1,654 5.7 -20.2°
Sets 18:27:51 0° 171° (S) 2,531 6.7 -20.6°
